Total_Precipitation_Accumulation
0.01 0.03 0.03 0.05 0.67 1.82 2.98 1.82 1.85 1.50 2.09 0.81 0.44 0.71 0.88 0.43 0.51 0.79 0.72 0.76 0.74 0.08 0.57 0.24 0.07 0.06 0.64 0.28 0.30 0.12 0.10 0.18 0.08 0.82 0.48 0.34 0.12 0.15 0.15 0.38 0.34 0.22 0.41 0.54 0.75 0.56 0.67 0.54 0.52 0.51 0.51 0.36 0.32 0.28 0.37 0.20 0.11 0.13 0.14 0.08 0.08 0.06 0.03 0.01 0.02 0.03 0.08 0.12 0.14 0.28 0.31 0.21 0.26 0.19 0.13 0.10 0.12 0.22 0.11 0.14 0.17 0.14 0.10 0.10 0.12 0.14 0.15 0.10 0.07 0.14 0.17 0.16 0.18 0.20 0.20 0.20 0.18
0.02 0.06 0.08 0.19 0.86 2.95 2.79 1.16 1.20 0.87 0.86 0.85 0.25 0.29 0.28 0.54 0.77 0.54 0.19 0.59 0.45 0.61 0.17 0.06 0.11 0.04 0.17 0.09 0.06 0.05 0.07 0.08 0.08 0.08 0.14 0.16 0.13 0.20 0.19 0.49 0.33 0.29 0.23 0.43 0.45 0.41 0.57 0.65 0.43 0.50 0.45 0.31 0.25 0.30 0.33 0.19 0.13 0.09 0.11 0.06 0.10 0.06 0.05 0.04 0.11 0.21 0.14 0.11 0.27 0.17 0.30 0.22 0.25 0.17 0.19 0.20 0.15 0.18 0.14 0.14 0.17 0.17 0.20 0.18 0.10 0.10 0.11 0.06 0.09 0.16 0.11 0.15 0.15 0.19 0.16 0.22 0.22
0.08 0.22 0.16 0.49 1.12 1.83 1.81 1.61 1.19 0.79 1.35 0.73 0.18 0.45 0.34 0.61 0.69 0.50 0.25 0.62 0.14 0.14 0.06 0.05 0.06 0.07 0.10 0.11 0.16 0.28 0.21 0.16 0.08 0.05 0.15 0.22 0.27 0.48 0.38 0.45 0.41 0.17 0.22 0.28 0.29 0.37 0.46 0.49 0.45 0.33 0.27 0.30 0.23 0.24 0.35 0.20 0.14 0.13 0.11 0.06 0.06 0.06 0.04 0.08 0.17 0.18 0.09 0.28 0.19 0.22 0.26 0.20 0.16 0.21 0.38 0.23 0.27 0.12 0.10 0.13 0.14 0.16 0.12 0.14 0.11 0.10 0.11 0.13 0.11 0.12 0.17 0.20 0.16 0.21 0.18 0.18 0.14
0.16 0.25 0.91 0.45 2.37 0.96 1.52 1.34 1.11 1.08 0.84 0.59 0.37 0.34 0.60 0.47 0.34 0.36 0.24 0.21 0.06 0.03 0.04 0.14 0.40 0.08 0.21 0.37 0.23 0.13 0.11 0.17 0.07 0.01 0.25 0.18 0.13 0.15 0.17 0.39 0.46 0.25 0.15 0.29 0.22 0.28 0.23 0.38 0.16 0.25 0.27 0.20 0.19 0.23 0.18 0.16 0.22 0.15 0.14 0.10 0.08 0.06 0.06 0.11 0.09 0.08 0.13 0.14 0.18 0.16 0.22 0.23 0.27 0.30 0.21 0.26 0.26 0.17 0.12 0.12 0.16 0.11 0.11 0.14 0.18 0.17 0.16 0.16 0.11 0.15 0.16 0.15 0.18 0.16 0.21 0.33 0.23
0.51 0.58 0.47 1.27 1.63 1.14 0.75 0.49 0.73 0.97 0.43 0.44 0.81 0.34 0.31 0.80 0.42 0.20 0.26 0.19 0.05 0.13 0.07 0.12 0.09 0.08 0.12 0.31 0.18 0.67 0.17 0.09 0.05 0.02 0.08 0.12 0.03 0.07 0.11 0.17 0.34 0.14 0.13 0.19 0.35 0.23 0.39 0.30 0.16 0.22 0.21 0.27 0.19 0.16 0.15 0.15 0.31 0.11 0.16 0.14 0.05 0.08 0.08 0.08 0.05 0.08 0.13 0.13 0.20 0.08 0.22 0.18 0.12 0.18 0.17 0.14 0.13 0.14 0.13 0.09 0.15 0.14 0.16 0.12 0.12 0.09 0.12 0.18 0.18 0.15 0.15 0.10 0.13 0.23 0.18 0.15 0.23
0.63 0.68 0.53 0.94 1.77 1.47 0.78 0.91 0.71 0.18 0.18 0.37 0.60 0.27 0.37 0.20 0.19 0.39 0.11 0.06 0.11 0.13 0.04 0.20 0.21 0.16 0.19 0.12 0.21 0.13 0.07 0.25 0.19 0.09 0.05 0.11 0.07 0.05 0.06 0.13 0.15 0.19 0.24 0.17 0.13 0.35 0.40 0.19 0.21 0.33 0.22 0.11 0.13 0.13 0.29 0.24 0.08 0.07 0.11 0.06 0.03 0.05 0.02 0.03 0.09 0.06 0.05 0.16 0.16 0.12 0.08 0.15 0.06 0.12 0.17 0.10 0.06 0.10 0.06 0.10 0.03 0.04 0.05 0.07 0.10 0.16 0.09 0.09 0.08 0.09 0.08 0.11 0.12 0.12 0.28 0.22 0.19
0.78 0.45 0.95 0.74 0.45 0.87 0.70 0.23 0.22 0.17 0.46 0.25 0.20 0.40 0.22 0.17 0.06 0.10 0.04 0.09 0.03 0.06 0.10 0.04 0.03 0.07 0.13 0.13 0.05 0.10 0.05 0.03 0.11 0.05 0.03 0.07 0.03 0.05 0.09 0.09 0.10 0.14 0.20 0.16 0.14 0.09 0.19 0.13 0.16 0.12 0.11 0.10 0.06 0.08 0.12 0.11 0.15 0.13 0.06 0.03 0.03 0.01 0.02 0.03 0.13 0.09 0.08 0.12 0.12 0.08 0.05 0.11 0.07 0.08 0.07 0.04 0.04 0.05 0.05 0.07 0.06 0.04 0.09 0.10 0.11 0.11 0.12 0.07 0.12 0.07 0.07 0.14 0.12 0.21 0.16 0.19 0.27
0.19 0.79 1.35 0.75 0.57 0.32 0.42 0.09 0.26 0.22 0.51 0.21 0.26 0.10 0.21 0.18 0.18 0.36 0.06 0.34 0.06 0.12 0.05 0.04 0.13 0.43 0.53 0.06 0.44 0.11 0.07 0.09 0.05 0.02 0.04 0.05 0.05 0.09 0.07 0.06 0.12 0.15 0.16 0.12 0.11 0.15 0.16 0.14 0.13 0.10 0.07 0.09 0.03 0.05 0.06 0.13 0.07 0.07 0.04 0.04 0.02 0.02 0.03 0.04 0.08 0.08 0.05 0.05 0.08 0.05 0.03 0.03 0.04 0.04 0.05 0.06 0.03 0.04 0.03 0.06 0.05 0.11 0.12 0.06 0.08 0.07 0.07 0.04 0.07 0.08 0.13 0.15 0.07 0.11 0.11 0.14 0.18
0.50 0.50 0.28 0.51 0.44 0.09 0.28 0.14 0.05 0.23 0.41 0.08 0.18 0.14 0.14 0.32 0.19 0.03 0.06 0.04 0.06 0.05 0.05 0.13 0.13 0.18 0.29 0.18 0.14 0.14 0.08 0.04 0.02 0.01 0.03 0.03 0.04 0.06 0.08 0.04 0.05 0.10 0.11 0.12 0.17 0.16 0.22 0.12 0.09 0.06 0.04 0.05 0.03 0.03 0.06 0.09 0.07 0.04 0.05 0.03 0.03 0.02 0.02 0.03 0.04 0.03 0.03 0.02 0.01 0.04 0.03 0.04 0.07 0.08 0.07 0.05 0.06 0.04 0.05 0.06 0.10 0.17 0.15 0.14 0.11 0.16 0.09 0.05 0.05 0.07 0.07 0.05 0.11 0.26 0.23 0.17 0.26
1.02 0.66 1.19 0.50 0.28 0.30 0.26 0.01 0.02 0.12 0.13 0.19 0.27 0.14 0.24 0.04 0.45 0.80 0.23 0.09 0.06 0.05 0.07 0.10 0.07 0.28 0.20 0.16 0.14 0.12 0.10 0.03 0.02 0.03 0.04 0.02 0.04 0.03 0.03 0.04 0.04 0.07 0.11 0.15 0.08 0.09 0.09 0.16 0.06 0.08 0.07 0.05 0.04 0.04 0.17 0.09 0.11 0.08 0.05 0.03 0.01 0.02 0.02 0.02 0.02 0.02 0.02 0.02 0.04 0.04 0.05 0.05 0.06 0.06 0.08 0.08 0.05 0.06 0.06 0.06 0.12 0.12 0.08 0.19 0.22 0.17 0.08 0.06 0.06 0.06 0.05 0.13 0.12 0.19 0.24 0.18 0.09
0.69 0.41 0.51 0.32 0.40 0.11 0.15 0.01 0.06 0.30 0.27 0.11 0.08 0.13 0.09 0.29 0.31 0.18 0.31 0.06 0.04 0.05 0.05 0.07 0.19 0.16 0.13 0.22 0.24 0.12 0.02 0.01 0.01 0.05 0.03 0.04 0.03 0.02 0.03 0.04 0.04 0.05 0.09 0.10 0.05 0.14 0.21 0.17 0.11 0.04 0.09 0.07 0.06 0.09 0.12 0.03 0.04 0.05 0.04 0.04 0.03 0.01 0.01 0.01 0.01 0.01 0.03 0.04 0.04 0.06 0.08 0.05 0.07 0.05 0.04 0.02 0.02 0.05 0.07 0.18 0.06 0.09 0.10 0.06 0.11 0.10 0.15 0.06 0.11 0.10 0.07 0.09 0.11 0.25 0.16 0.22 0.11
1.21 0.75 0.16 0.34 0.68 0.30 0.03 0.03 0.09 0.02 0.25 0.18 0.06 0.35 0.13 0.15 0.29 0.22 0.18 0.12 0.03 0.02 0.04 0.09 0.27 0.10 0.11 0.11 0.21 0.28 0.05 0.02 0.01 0.01 0.03 0.03 0.03 0.03 0.02 0.03 0.06 0.05 0.02 0.05 0.10 0.18 0.12 0.18 0.11 0.11 0.04 0.05 0.07 0.09 0.06 0.09 0.02 0.03 0.03 0.02 0.03 0.00 0.00 0.00 0.00 0.01 0.03 0.02 0.04 0.04 0.03 0.04 0.03 0.04 0.02 0.01 0.02 0.03 0.07 0.04 0.11 0.09 0.05 0.16 0.08 0.06 0.19 0.26 0.47 0.27 0.35 0.16 0.20 0.20 0.38 0.17 0.11
0.43 0.30 0.42 0.38 0.44 0.28 0.01 0.04 0.03 0.02 0.14 0.16 0.04 0.00 0.05 0.11 0.15 0.44 0.08 0.01 0.03 0.03 0.04 0.08 0.03 0.05 0.11 0.13 0.22 0.15 0.08 0.03 0.02 0.01 0.03 0.02 0.03 0.05 0.02 0.03 0.07 0.05 0.02 0.05 0.08 0.12 0.12 0.19 0.13 0.14 0.09 0.11 0.09 0.06 0.03 0.03 0.02 0.03 0.01 0.02 0.01 0.00 0.00 0.01 0.00 0.00 0.01 0.04 0.04 0.02 0.03 0.03 0.03 0.03 0.02 0.01 0.02 0.02 0.07 0.09 0.14 0.16 0.07 0.12 0.17 0.07 0.17 0.24 0.40 0.44 0.31 0.50 0.28 0.30 0.25 0.28 0.25
0.17 0.37 0.43 0.24 0.29 0.03 0.32 0.03 0.04 0.01 0.10 0.03 0.09 0.20 0.05 0.06 0.02 0.20 0.01 0.02 0.10 0.28 0.01 0.01 0.05 0.05 0.13 0.07 0.52 0.17 0.08 0.04 0.03 0.02 0.02 0.04 0.06 0.04 0.03 0.03 0.03 0.04 0.05 0.05 0.08 0.14 0.11 0.14 0.13 0.07 0.08 0.07 0.12 0.10 0.08 0.04 0.04 0.03 0.02 0.01 0.02 0.01 0.00 0.01 0.00 0.04 0.03 0.02 0.04 0.04 0.02 0.02 0.01 0.01 0.00 0.00 0.01 0.04 0.03 0.03 0.09 0.07 0.09 0.03 0.03 0.08 0.17 0.35 0.19 0.37 0.47 0.55 0.58 0.50 0.47 0.46 0.37
0.19 0.16 0.22 0.48 0.28 0.06 0.06 0.22 0.05 0.01 0.01 0.01 0.00 0.43 0.43 0.24 0.48 0.22 0.18 0.02 0.03 0.00 0.00 0.01 0.01 0.05 0.14 0.02 0.17 0.05 0.04 0.04 0.03 0.02 0.05 0.07 0.06 0.04 0.02 0.04 0.06 0.04 0.07 0.11 0.11 0.12 0.11 0.12 0.09 0.07 0.08 0.10 0.07 0.08 0.06 0.07 0.02 0.01 0.01 0.01 0.01 0.01 0.00 0.02 0.01 0.01 0.01 0.01 0.02 0.02 0.01 0.00 0.00 0.01 0.01 0.01 0.02 0.02 0.02 0.04 0.02 0.02 0.02 0.01 0.02 0.05 0.13 0.28 0.38 0.40 0.39 0.49 0.46 0.59 0.83 0.52 0.47
0.07 0.07 0.27 0.28 0.51 0.57 0.26 0.03 0.01 0.01 0.03 0.41 0.16 0.79 0.53 0.24 0.38 0.40 0.24 0.20 0.02 0.00 0.00 0.02 0.00 0.03 0.02 0.02 0.00 0.02 0.00 0.03 0.02 0.03 0.05 0.10 0.05 0.04 0.07 0.07 0.07 0.07 0.08 0.11 0.10 0.09 0.07 0.08 0.07 0.06 0.06 0.04 0.06 0.03 0.03 0.03 0.04 0.01 0.01 0.02 0.01 0.01 0.01 0.01 0.01 0.01 0.02 0.02 0.02 0.02 0.01 0.03 0.01 0.01 0.01 0.02 0.02 0.03 0.02 0.03 0.02 0.02 0.00 0.00 0.02 0.02 0.05 0.07 0.20 0.19 0.34 0.49 0.44 0.46 0.62 0.74 0.84
0.04 0.19 0.37 0.32 0.54 0.20 0.13 0.10 0.01 0.05 0.03 0.07 0.13 0.51 0.14 0.25 0.05 0.18 0.34 0.37 0.15 0.00 0.00 0.00 0.01 0.00 0.00 0.01 0.00 0.00 0.01 0.01 0.02 0.07 0.06 0.15 0.12 0.16 0.18 0.20 0.13 0.14 0.17 0.13 0.08 0.07 0.05 0.06 0.06 0.06 0.04 0.03 0.03 0.03 0.03 0.04 0.03 0.02 0.03 0.01 0.01 0.01 0.01 0.01 0.03 0.02 0.03 0.03 0.02 0.01 0.01 0.03 0.05 0.06 0.08 0.05 0.01 0.06 0.01 0.03 0.02 0.03 0.02 0.02 0.01 0.04 0.02 0.07 0.07 0.07 0.14 0.15 0.23 0.45 0.52 0.36 0.42
0.11 0.48 0.09 0.28 0.67 0.59 0.25 0.19 0.00 0.01 0.05 0.01 0.03 0.13 0.17 0.02 0.03 0.05 0.20 0.43 0.24 0.09 0.01 0.00 0.00 0.00 0.00 0.00 0.00 0.00 0.01 0.02 0.06 0.06 0.06 0.09 0.10 0.17 0.17 0.15 0.16 0.15 0.12 0.15 0.12 0.10 0.05 0.06 0.08 0.05 0.05 0.03 0.04 0.05 0.02 0.04 0.07 0.07 0.03 0.07 0.04 0.03 0.02 0.01 0.02 0.01 0.06 0.04 0.06 0.02 0.13 0.05 0.20 0.17 0.21 0.12 0.05 0.06 0.06 0.04 0.02 0.02 0.01 0.01 0.03 0.02 0.01 0.02 0.03 0.03 0.02 0.08 0.12 0.12 0.12 0.17 0.16
0.14 0.29 0.05 0.66 0.11 0.58 0.18 0.10 0.02 0.07 0.03 0.00 0.02 0.00 0.04 0.09 0.00 0.01 0.14 0.08 0.02 0.03 0.01 0.01 0.01 0.00 0.00 0.00 0.01 0.00 0.01 0.02 0.04 0.01 0.02 0.03 0.05 0.07 0.06 0.08 0.09 0.11 0.15 0.11 0.11 0.10 0.03 0.04 0.04 0.06 0.03 0.04 0.04 0.03 0.02 0.03 0.05 0.12 0.06 0.03 0.02 0.01 0.02 0.01 0.01 0.03 0.01 0.02 0.06 0.03 0.09 0.12 0.13 0.20 0.19 0.08 0.06 0.02 0.01 0.01 0.04 0.02 0.02 0.02 0.01 0.01 0.01 0.01 0.01 0.05 0.03 0.04 0.08 0.08 0.14 0.11 0.12
0.05 0.11 0.23 0.14 0.16 0.53 0.33 0.03 0.08 0.01 0.02 0.02 0.05 0.00 0.01 0.00 0.02 0.00 0.08 0.02 0.05 0.03 0.02 0.01 0.01 0.02 0.01 0.02 0.01 0.01 0.02 0.01 0.01 0.02 0.01 0.01 0.01 0.01 0.03 0.05 0.05 0.05 0.05 0.05 0.04 0.08 0.04 0.04 0.04 0.06 0.05 0.04 0.05 0.05 0.03 0.07 0.05 0.04 0.04 0.02 0.02 0.02 0.02 0.02 0.01 0.01 0.02 0.03 0.03 0.03 0.07 0.09 0.07 0.13 0.04 0.02 0.04 0.02 0.05 0.02 0.05 0.02 0.02 0.02 0.03 0.04 0.01 0.03 0.01 0.00 0.02 0.06 0.19 0.19 0.09 0.12 0.05
0.11 0.06 0.06 0.33 0.45 0.12 0.19 0.04 0.10 0.06 0.04 0.01 0.11 0.00 0.04 0.00 0.06 0.00 0.05 0.01 0.10 0.12 0.01 0.00 0.02 0.02 0.01 0.00 0.01 0.01 0.01 0.01 0.02 0.01 0.01 0.01 0.02 0.01 0.01 0.01 0.04 0.02 0.04 0.03 0.05 0.05 0.05 0.03 0.04 0.06 0.03 0.05 0.04 0.05 0.02 0.02 0.04 0.05 0.02 0.01 0.01 0.01 0.03 0.02 0.01 0.02 0.02 0.05 0.03 0.10 0.08 0.12 0.05 0.06 0.05 0.03 0.05 0.06 0.06 0.04 0.10 0.16 0.12 0.21 0.02 0.17 0.17 0.09 0.10 0.14 0.14 0.13 0.13 0.09 0.14 0.10 0.03
0.02 0.09 0.08 0.03 0.16 0.05 0.34 0.14 0.02 0.02 0.00 0.01 0.00 0.02 0.13 0.00 0.05 0.00 0.00 0.12 0.03 0.15 0.15 0.00 0.03 0.00 0.00 0.01 0.00 0.00 0.01 0.02 0.01 0.01 0.00 0.00 0.00 0.03 0.02 0.01 0.04 0.03 0.05 0.04 0.02 0.02 0.03 0.02 0.02 0.04 0.03 0.03 0.03 0.04 0.04 0.04 0.03 0.02 0.05 0.04 0.02 0.01 0.03 0.02 0.01 0.01 0.02 0.02 0.13 0.15 0.07 0.16 0.03 0.03 0.03 0.02 0.03 0.02 0.02 0.06 0.09 0.11 0.04 0.11 0.05 0.11 0.10 0.04 0.13 0.16 0.09 0.08 0.13 0.15 0.05 0.05 0.03
0.00 0.00 0.00 0.02 0.01 0.07 0.20 0.08 0.23 0.00 0.05 0.06 0.01 0.00 0.01 0.00 0.11 0.00 0.00 0.00 0.00 0.08 0.04 0.01 0.01 0.00 0.03 0.01 0.00 0.01 0.00 0.01 0.01 0.00 0.01 0.01 0.01 0.01 0.01 0.01 0.01 0.02 0.02 0.01 0.02 0.02 0.02 0.02 0.02 0.03 0.03 0.04 0.03 0.03 0.06 0.05 0.03 0.02 0.04 0.04 0.04 0.02 0.02 0.02 0.01 0.01 0.05 0.03 0.06 0.04 0.09 0.03 0.02 0.03 0.01 0.04 0.03 0.02 0.03 0.07 0.07 0.09 0.08 0.07 0.09 0.19 0.03 0.07 0.12 0.05 0.15 0.12 0.09 0.24 0.20 0.04 0.07
0.00 0.00 0.00 0.00 0.00 0.00 0.00 0.01 0.00 0.00 0.00 0.13 0.04 0.00 0.02 0.00 0.01 0.01 0.00 0.01 0.00 0.00 0.00 0.00 0.00 0.00 0.01 0.02 0.01 0.01 0.00 0.00 0.00 0.00 0.00 0.01 0.00 0.00 0.00 0.01 0.00 0.01 0.02 0.01 0.02 0.03 0.01 0.01 0.02 0.02 0.03 0.04 0.03 0.03 0.04 0.06 0.04 0.04 0.04 0.07 0.04 0.02 0.02 0.01 0.03 0.03 0.02 0.01 0.02 0.03 0.03 0.06 0.04 0.08 0.10 0.03 0.02 0.03 0.06 0.19 0.21 0.04 0.10 0.13 0.06 0.02 0.09 0.18 0.16 0.28 0.09 0.08 0.05 0.10 0.10 0.04 0.05
0.01 0.00 0.00 0.00 0.02 0.01 0.00 0.00 0.00 0.00 0.00 0.00 0.00 0.00 0.00 0.00 0.01 0.00 0.00 0.00 0.00 0.00 0.00 0.00 0.00 0.00 0.00 0.02 0.01 0.01 0.01 0.01 0.01 0.01 0.00 0.00 0.00 0.00 0.01 0.00 0.01 0.01 0.01 0.03 0.02 0.01 0.03 0.02 0.03 0.02 0.02 0.02 0.03 0.03 0.03 0.03 0.04 0.04 0.04 0.03 0.02 0.02 0.02 0.01 0.03 0.02 0.02 0.02 0.02 0.02 0.02 0.02 0.01 0.02 0.04 0.03 0.04 0.13 0.04 0.02 0.04 0.07 0.03 0.05 0.05 0.08 0.02 0.05 0.03 0.15 0.15 0.05 0.11 0.05 0.07 0.05 0.07
0.00 0.00 0.00 0.00 0.00 0.01 0.00 0.00 0.00 0.00 0.00 0.00 0.00 0.02 0.00 0.01 0.00 0.00 0.00 0.00 0.00 0.00 0.00 0.00 0.00 0.00 0.00 0.01 0.00 0.01 0.00 0.01 0.00 0.00 0.00 0.00 0.00 0.01 0.00 0.00 0.00 0.01 0.00 0.01 0.01 0.02 0.02 0.03 0.01 0.02 0.02 0.02 0.02 0.03 0.02 0.05 0.05 0.05 0.03 0.03 0.02 0.05 0.02 0.01 0.02 0.02 0.01 0.01 0.03 0.01 0.01 0.01 0.01 0.04 0.06 0.02 0.02 0.03 0.02 0.02 0.01 0.01 0.01 0.03 0.01 0.18 0.07 0.03 0.06 0.07 0.04 0.12 0.05 0.07 0.09 0.06 0.07
0.00 0.00 0.00 0.02 0.02 0.00 0.00 0.00 0.00 0.00 0.00 0.00 0.00 0.00 0.00 0.02 0.01 0.04 0.00 0.00 0.00 0.00 0.00 0.00 0.00 0.00 0.00 0.00 0.00 0.01 0.01 0.01 0.00 0.00 0.01 0.00 0.00 0.00 0.00 0.00 0.00 0.00 0.00 0.01 0.01 0.01 0.01 0.02 0.02 0.01 0.01 0.01 0.02 0.02 0.02 0.02 0.04 0.03 0.02 0.02 0.03 0.03 0.02 0.03 0.07 0.14 0.05 0.02 0.02 0.01 0.01 0.01 0.01 0.02 0.05 0.05 0.02 0.02 0.03 0.01 0.03 0.04 0.02 0.06 0.04 0.06 0.07 0.02 0.03 0.09 0.14 0.04 0.07 0.06 0.08 0.07 0.06
0.00 0.00 0.00 0.00 0.00 0.00 0.00 0.00 0.00 0.00 0.00 0.00 0.00 0.01 0.01 0.00 0.02 0.00 0.00 0.00 0.00 0.00 0.00 0.00 0.00 0.00 0.00 0.00 0.01 0.00 0.00 0.00 0.00 0.00 0.00 0.00 0.00 0.00 0.00 0.00 0.00 0.00 0.00 0.00 0.01 0.00 0.02 0.01 0.03 0.01 0.01 0.02 0.02 0.01 0.01 0.02 0.02 0.02 0.03 0.03 0.03 0.02 0.03 0.11 0.12 0.11 0.02 0.01 0.03 0.05 0.06 0.01 0.00 0.01 0.05 0.01 0.05 0.02 0.03 0.02 0.03 0.02 0.02 0.01 0.05 0.03 0.08 0.05 0.05 0.06 0.04 0.09 0.09 0.09 0.09 0.06 0.05
0.00 0.00 0.00 0.00 0.00 0.00 0.00 0.00 0.00 0.00 0.01 0.00 0.00 0.02 0.00 0.01 0.01 0.00 0.00 0.00 0.00 0.00 0.00 0.00 0.00 0.00 0.00 0.00 0.00 0.00 0.00 0.00 0.00 0.00 0.00 0.00 0.00 0.00 0.00 0.00 0.00 0.00 0.00 0.00 0.00 0.00 0.00 0.02 0.01 0.01 0.01 0.02 0.02 0.01 0.01 0.01 0.01 0.01 0.03 0.01 0.01 0.06 0.10 0.04 0.02 0.02 0.02 0.04 0.06 0.01 0.06 0.01 0.01 0.01 0.02 0.01 0.01 0.02 0.02 0.04 0.04 0.01 0.02 0.02 0.01 0.04 0.07 0.03 0.04 0.06 0.15 0.09 0.12 0.11 0.04 0.05 0.06
0.00 0.00 0.00 0.00 0.00 0.00 0.00 0.00 0.00 0.00 0.00 0.00 0.00 0.06 0.01 0.00 0.01 0.01 0.00 0.00 0.00 0.00 0.00 0.00 0.00 0.00 0.00 0.00 0.00 0.00 0.00 0.00 0.00 0.00 0.00 0.00 0.00 0.00 0.00 0.00 0.00 0.00 0.00 0.00 0.00 0.00 0.00 0.01 0.00 0.02 0.01 0.01 0.01 0.01 0.01 0.01 0.00 0.01 0.01 0.03 0.07 0.09 0.12 0.12 0.07 0.06 0.10 0.04 0.01 0.02 0.03 0.03 0.02 0.00 0.01 0.02 0.01 0.03 0.02 0.03 0.04 0.06 0.02 0.03 0.04 0.03 0.07 0.08 0.05 0.08 0.10 0.07 0.11 0.07 0.07 0.04 0.10
0.00 0.00 0.00 0.00 0.00 0.00 0.00 0.00 0.00 0.00 0.00 0.00 0.00 0.05 0.00 0.00 0.00 0.00 0.00 0.00 0.00 0.00 0.00 0.00 0.00 0.00 0.00 0.00 0.00 0.00 0.00 0.00 0.00 0.00 0.00 0.00 0.00 0.00 0.00 0.00 0.00 0.00 0.00 0.00 0.00 0.00 0.00 0.00 0.01 0.01 0.01 0.01 0.02 0.01 0.01 0.01 0.00 0.01 0.01 0.01 0.05 0.15 0.13 0.10 0.11 0.04 0.02 0.02 0.02 0.02 0.03 0.04 0.03 0.04 0.04 0.07 0.05 0.02 0.05 0.05 0.12 0.06 0.14 0.05 0.01 0.08 0.05 0.14 0.06 0.05 0.06 0.11 0.09 0.04 0.09 0.04 0.04
0.00 0.00 0.00 0.00 0.00 0.01 0.00 0.00 0.00 0.00 0.00 0.00 0.00 0.00 0.05 0.01 0.02 0.00 0.00 0.00 0.00 0.00 0.00 0.00 0.01 0.01 0.00 0.01 0.01 0.01 0.01 0.00 0.00 0.00 0.00 0.00 0.00 0.00 0.00 0.00 0.00 0.00 0.00 0.00 0.00 0.00 0.00 0.00 0.00 0.00 0.00 0.00 0.00 0.00 0.01 0.00 0.00 0.00 0.01 0.01 0.06 0.10 0.04 0.12 0.19 0.06 0.03 0.03 0.01 0.01 0.05 0.08 0.09 0.07 0.08 0.09 0.08 0.02 0.04 0.06 0.13 0.08 0.05 0.09 0.06 0.07 0.05 0.13 0.09 0.08 0.09 0.10 0.10 0.11 0.03 0.02 0.04
0.00 0.00 0.01 0.00 0.00 0.00 0.00 0.00 0.00 0.00 0.00 0.00 0.00 0.02 0.00 0.07 0.01 0.01 0.00 0.00 0.00 0.00 0.00 0.00 0.00 0.00 0.01 0.04 0.01 0.01 0.00 0.00 0.01 0.00 0.00 0.00 0.00 0.00 0.00 0.00 0.00 0.00 0.00 0.00 0.00 0.00 0.00 0.00 0.00 0.00 0.00 0.00 0.00 0.00 0.00 0.00 0.00 0.01 0.01 0.00 0.02 0.02 0.12 0.04 0.10 0.03 0.09 0.02 0.08 0.05 0.04 0.08 0.12 0.12 0.07 0.06 0.09 0.06 0.05 0.06 0.10 0.10 0.08 0.08 0.08 0.20 0.06 0.09 0.10 0.10 0.13 0.08 0.03 0.11 0.10 0.02 0.06
0.00 0.00 0.00 0.00 0.00 0.00 0.00 0.00 0.00 0.00 0.00 0.00 0.00 0.00 0.01 0.01 0.00 0.00 0.00 0.00 0.00 0.01 0.00 0.02 0.01 0.02 0.00 0.00 0.01 0.01 0.01 0.00 0.01 0.00 0.00 0.00 0.00 0.00 0.00 0.00 0.00 0.00 0.00 0.00 0.00 0.00 0.00 0.00 0.00 0.00 0.00 0.00 0.00 0.00 0.00 0.00 0.01 0.01 0.01 0.00 0.03 0.02 0.06 0.09 0.03 0.13 0.11 0.07 0.09 0.18 0.13 0.12 0.09 0.14 0.16 0.14 0.17 0.18 0.10 0.12 0.16 0.20 0.13 0.05 0.08 0.09 0.09 0.19 0.13 0.10 0.06 0.05 0.05 0.03 0.09 0.08 0.05
0.00 0.00 0.00 0.00 0.00 0.00 0.00 0.00 0.00 0.00 0.00 0.00 0.00 0.00 0.01 0.01 0.01 0.00 0.00 0.00 0.00 0.00 0.00 0.00 0.01 0.10 0.00 0.00 0.02 0.01 0.01 0.02 0.02 0.00 0.00 0.00 0.00 0.00 0.00 0.00 0.00 0.00 0.00 0.00 0.00 0.00 0.01 0.01 0.00 0.00 0.01 0.00 0.00 0.00 0.00 0.01 0.01 0.03 0.05 0.05 0.03 0.02 0.06 0.07 0.06 0.08 0.08 0.08 0.12 0.07 0.06 0.26 0.18 0.29 0.24 0.36 0.16 0.22 0.12 0.07 0.05 0.12 0.06 0.05 0.16 0.13 0.09 0.15 0.07 0.07 0.06 0.07 0.06 0.05 0.08 0.04 0.06
0.00 0.00 0.00 0.00 0.00 0.00 0.02 0.01 0.00 0.00 0.00 0.00 0.00 0.00 0.00 0.00 0.02 0.00 0.00 0.00 0.00 0.00 0.00 0.01 0.00 0.02 0.02 0.04 0.01 0.02 0.00 0.01 0.01 0.01 0.00 0.00 0.00 0.00 0.00 0.00 0.00 0.00 0.00 0.00 0.00 0.00 0.00 0.00 0.00 0.00 0.00 0.00 0.01 0.01 0.01 0.02 0.01 0.02 0.03 0.02 0.03 0.03 0.02 0.04 0.03 0.04 0.03 0.02 0.12 0.16 0.07 0.15 0.09 0.15 0.13 0.07 0.09 0.06 0.03 0.06 0.07 0.11 0.06 0.08 0.10 0.18 0.13 0.18 0.11 0.15 0.09 0.06 0.11 0.12 0.07 0.07 0.09
0.00 0.00 0.00 0.00 0.00 0.00 0.00 0.01 0.00 0.00 0.00 0.00 0.00 0.00 0.00 0.01 0.00 0.01 0.00 0.00 0.00 0.00 0.00 0.00 0.00 0.00 0.02 0.07 0.05 0.01 0.02 0.02 0.00 0.01 0.01 0.02 0.00 0.00 0.00 0.00 0.00 0.00 0.00 0.00 0.00 0.00 0.00 0.00 0.00 0.00 0.01 0.01 0.02 0.04 0.03 0.02 0.05 0.03 0.03 0.02 0.01 0.01 0.01 0.01 0.01 0.01 0.01 0.07 0.07 0.12 0.04 0.08 0.06 0.06 0.04 0.02 0.03 0.06 0.07 0.07 0.09 0.14 0.14 0.13 0.19 0.14 0.11 0.10 0.17 0.09 0.08 0.06 0.05 0.10 0.23 0.17 0.05
0.00 0.00 0.00 0.00 0.00 0.00 0.00 0.01 0.00 0.00 0.00 0.00 0.00 0.00 0.00 0.00 0.00 0.00 0.00 0.00 0.00 0.00 0.00 0.00 0.00 0.00 0.05 0.02 0.05 0.02 0.02 0.01 0.02 0.02 0.01 0.00 0.00 0.00 0.00 0.00 0.00 0.00 0.00 0.00 0.00 0.00 0.00 0.00 0.00 0.00 0.00 0.01 0.01 0.01 0.02 0.02 0.01 0.01 0.01 0.01 0.01 0.03 0.03 0.02 0.02 0.02 0.01 0.02 0.02 0.02 0.02 0.04 0.03 0.03 0.03 0.03 0.09 0.07 0.06 0.05 0.08 0.18 0.15 0.11 0.09 0.09 0.10 0.13 0.08 0.08 0.06 0.07 0.04 0.08 0.13 0.13 0.08
0.00 0.00 0.00 0.00 0.00 0.00 0.00 0.00 0.00 0.00 0.00 0.00 0.00 0.00 0.00 0.00 0.00 0.00 0.00 0.00 0.00 0.00 0.00 0.00 0.00 0.00 0.02 0.01 0.05 0.04 0.01 0.02 0.01 0.01 0.01 0.00 0.00 0.00 0.00 0.00 0.00 0.00 0.00 0.00 0.00 0.00 0.00 0.00 0.00 0.01 0.01 0.01 0.00 0.01 0.01 0.02 0.01 0.01 0.01 0.02 0.01 0.03 0.02 0.03 0.06 0.07 0.03 0.04 0.02 0.02 0.05 0.03 0.03 0.06 0.07 0.08 0.12 0.14 0.09 0.11 0.12 0.15 0.11 0.04 0.03 0.04 0.03 0.05 0.06 0.06 0.08 0.05 0.09 0.08 0.05 0.02 0.08
0.00 0.00 0.00 0.00 0.00 0.00 0.01 0.00 0.00 0.00 0.00 0.01 0.00 0.01 0.00 0.00 0.00 0.00 0.00 0.00 0.00 0.00 0.00 0.00 0.01 0.00 0.01 0.02 0.03 0.04 0.00 0.01 0.02 0.00 0.01 0.01 0.00 0.00 0.00 0.00 0.00 0.00 0.00 0.00 0.00 0.00 0.00 0.00 0.00 0.00 0.00 0.01 0.01 0.01 0.00 0.00 0.01 0.01 0.00 0.02 0.02 0.03 0.07 0.02 0.04 0.04 0.05 0.03 0.05 0.04 0.05 0.08 0.12 0.15 0.10 0.14 0.17 0.04 0.05 0.07 0.04 0.05 0.04 0.03 0.07 0.03 0.04 0.06 0.06 0.11 0.06 0.07 0.05 0.06 0.07 0.04 0.01
0.00 0.00 0.00 0.00 0.00 0.00 0.00 0.01 0.00 0.00 0.00 0.00 0.00 0.00 0.01 0.00 0.00 0.00 0.00 0.00 0.00 0.00 0.00 0.00 0.00 0.00 0.00 0.01 0.01 0.03 0.01 0.02 0.02 0.00 0.00 0.00 0.00 0.00 0.00 0.00 0.00 0.00 0.00 0.00 0.00 0.00 0.00 0.00 0.00 0.00 0.00 0.00 0.00 0.00 0.01 0.01 0.02 0.03 0.03 0.02 0.02 0.04 0.02 0.03 0.03 0.03 0.03 0.03 0.03 0.04 0.04 0.08 0.11 0.03 0.02 0.02 0.01 0.01 0.02 0.02 0.03 0.03 0.04 0.09 0.06 0.06 0.05 0.10 0.07 0.10 0.06 0.09 0.08 0.05 0.04 0.02 0.02
0.00 0.00 0.00 0.00 0.00 0.00 0.00 0.00 0.00 0.01 0.00 0.00 0.00 0.03 0.00 0.01 0.00 0.00 0.00 0.00 0.00 0.00 0.00 0.01 0.00 0.00 0.00 0.01 0.02 0.02 0.00 0.00 0.02 0.02 0.02 0.02 0.01 0.00 0.00 0.00 0.00 0.00 0.00 0.00 0.00 0.00 0.00 0.00 0.00 0.00 0.00 0.01 0.00 0.00 0.01 0.02 0.03 0.06 0.05 0.06 0.08 0.05 0.10 0.03 0.02 0.01 0.02 0.04 0.02 0.02 0.02 0.02 0.05 0.03 0.01 0.00 0.00 0.01 0.01 0.03 0.01 0.03 0.02 0.05 0.04 0.08 0.08 0.07 0.07 0.05 0.03 0.04 0.06 0.06 0.02 0.01 0.01
0.00 0.00 0.00 0.00 0.00 0.00 0.00 0.00 0.00 0.01 0.02 0.01 0.00 0.04 0.03 0.01 0.00 0.00 0.00 0.00 0.01 0.00 0.00 0.01 0.01 0.01 0.00 0.00 0.00 0.01 0.01 0.00 0.01 0.01 0.01 0.07 0.03 0.01 0.00 0.00 0.00 0.00 0.00 0.00 0.00 0.00 0.00 0.00 0.00 0.00 0.00 0.00 0.00 0.00 0.01 0.01 0.02 0.02 0.03 0.04 0.02 0.02 0.02 0.01 0.00 0.02 0.00 0.00 0.01 0.00 0.00 0.00 0.00 0.00 0.00 0.00 0.00 0.01 0.02 0.03 0.02 0.02 0.03 0.08 0.04 0.10 0.05 0.05 0.04 0.03 0.03 0.03 0.04 0.05 0.02 0.01 0.00
0.00 0.00 0.00 0.00 0.00 0.00 0.00 0.00 0.00 0.01 0.00 0.00 0.00 0.00 0.03 0.05 0.01 0.00 0.00 0.00 0.01 0.01 0.00 0.00 0.00 0.00 0.02 0.01 0.00 0.00 0.00 0.00 0.00 0.00 0.00 0.00 0.01 0.02 0.01 0.00 0.00 0.00 0.00 0.00 0.00 0.00 0.00 0.00 0.00 0.00 0.00 0.00 0.00 0.00 0.01 0.01 0.01 0.01 0.01 0.01 0.01 0.01 0.00 0.01 0.00 0.00 0.00 0.01 0.01 0.00 0.00 0.00 0.01 0.00 0.00 0.00 0.00 0.01 0.01 0.05 0.03 0.02 0.01 0.02 0.06 0.06 0.05 0.03 0.02 0.03 0.03 0.02 0.03 0.04 0.03 0.01 0.00
0.00 0.00 0.00 0.00 0.00 0.00 0.00 0.00 0.00 0.00 0.01 0.05 0.01 0.00 0.02 0.00 0.00 0.00 0.00 0.00 0.01 0.00 0.01 0.00 0.00 0.00 0.00 0.00 0.00 0.00 0.00 0.00 0.00 0.00 0.00 0.01 0.00 0.00 0.02 0.01 0.00 0.00 0.00 0.00 0.00 0.00 0.00 0.00 0.00 0.00 0.00 0.00 0.00 0.00 0.00 0.00 0.00 0.01 0.01 0.01 0.01 0.00 0.01 0.00 0.00 0.00 0.00 0.00 0.00 0.01 0.00 0.00 0.01 0.00 0.00 0.00 0.00 0.01 0.01 0.03 0.03 0.02 0.02 0.03 0.04 0.04 0.06 0.04 0.03 0.03 0.03 0.02 0.02 0.02 0.01 0.01 0.01
0.00 0.00 0.00 0.00 0.00 0.00 0.00 0.00 0.01 0.01 0.01 0.01 0.00 0.00 0.04 0.00 0.01 0.00 0.00 0.00 0.00 0.00 0.01 0.03 0.01 0.02 0.02 0.02 0.01 0.01 0.01 0.00 0.00 0.00 0.01 0.01 0.01 0.02 0.03 0.01 0.02 0.01 0.00 0.00 0.00 0.00 0.00 0.00 0.00 0.00 0.00 0.00 0.00 0.00 0.00 0.00 0.00 0.00 0.00 0.00 0.00 0.01 0.00 0.00 0.00 0.00 0.00 0.00 0.00 0.00 0.00 0.00 0.00 0.01 0.00 0.00 0.00 0.00 0.01 0.01 0.02 0.02 0.02 0.05 0.02 0.02 0.02 0.02 0.03 0.02 0.02 0.03 0.02 0.01 0.01 0.01 0.01
0.00 0.00 0.00 0.00 0.00 0.00 0.00 0.00 0.00 0.01 0.00 0.00 0.00 0.00 0.00 0.02 0.00 0.01 0.00 0.00 0.00 0.00 0.00 0.00 0.01 0.00 0.03 0.01 0.02 0.01 0.01 0.01 0.01 0.01 0.01 0.00 0.01 0.02 0.02 0.02 0.00 0.00 0.01 0.00 0.00 0.00 0.00 0.00 0.00 0.00 0.00 0.00 0.00 0.00 0.00 0.00 0.00 0.00 0.00 0.00 0.00 0.01 0.01 0.00 0.00 0.00 0.00 0.00 0.00 0.00 0.01 0.00 0.00 0.00 0.00 0.00 0.00 0.00 0.01 0.01 0.01 0.01 0.02 0.01 0.01 0.01 0.01 0.02 0.01 0.01 0.01 0.01 0.02 0.01 0.01 0.01 0.01
0.00 0.00 0.00 0.00 0.00 0.00 0.00 0.00 0.00 0.00 0.00 0.00 0.00 0.00 0.01 0.04 0.00 0.00 0.00 0.00 0.00 0.00 0.00 0.00 0.00 0.00 0.00 0.00 0.00 0.01 0.00 0.01 0.01 0.01 0.00 0.01 0.02 0.00 0.00 0.00 0.00 0.00 0.00 0.00 0.00 0.00 0.00 0.00 0.00 0.00 0.00 0.00 0.00 0.00 0.00 0.00 0.00 0.00 0.00 0.00 0.00 0.00 0.00 0.00 0.00 0.00 0.00 0.00 0.00 0.00 0.00 0.00 0.00 0.00 0.00 0.00 0.00 0.00 0.00 0.00 0.00 0.01 0.01 0.01 0.01 0.01 0.01 0.01 0.01 0.01 0.01 0.01 0.01 0.01 0.01 0.01 0.01
0.00 0.00 0.00 0.00 0.00 0.00 0.00 0.00 0.00 0.00 0.00 0.00 0.00 0.00 0.00 0.00 0.00 0.00 0.00 0.00 0.00 0.00 0.00 0.00 0.00 0.00 0.00 0.00 0.00 0.01 0.00 0.01 0.00 0.01 0.03 0.02 0.00 0.00 0.00 0.00 0.00 0.00 0.00 0.00 0.00 0.00 0.00 0.00 0.00 0.00 0.00 0.00 0.00 0.00 0.00 0.00 0.00 0.00 0.00 0.00 0.00 0.00 0.00 0.00 0.00 0.00 0.00 0.00 0.00 0.00 0.00 0.00 0.00 0.00 0.00 0.00 0.00 0.00 0.00 0.00 0.00 0.00 0.01 0.00 0.00 0.01 0.01 0.01 0.01 0.01 0.01 0.01 0.00 0.00 0.00 0.01 0.01
0.00 0.00 0.00 0.00 0.00 0.00 0.00 0.00 0.00 0.00 0.00 0.00 0.00 0.00 0.00 0.00 0.00 0.00 0.00 0.00 0.00 0.00 0.00 0.00 0.00 0.00 0.00 0.00 0.00 0.00 0.00 0.00 0.01 0.00 0.01 0.00 0.00 0.01 0.00 0.00 0.00 0.00 0.00 0.00 0.00 0.00 0.00 0.00 0.00 0.00 0.00 0.00 0.00 0.00 0.00 0.00 0.00 0.00 0.00 0.00 0.00 0.00 0.00 0.00 0.00 0.00 0.00 0.00 0.00 0.00 0.00 0.00 0.00 0.00 0.00 0.00 0.00 0.00 0.00 0.00 0.00 0.00 0.00 0.00 0.00 0.00 0.01 0.01 0.01 0.01 0.01 0.01 0.00 0.00 0.00 0.01 0.01
0.00 0.00 0.00 0.00 0.00 0.00 0.00 0.00 0.00 0.00 0.00 0.00 0.00 0.00 0.00 0.02 0.00 0.00 0.00 0.00 0.00 0.00 0.00 0.00 0.00 0.00 0.00 0.00 0.00 0.00 0.00 0.00 0.00 0.00 0.01 0.00 0.01 0.00 0.00 0.01 0.00 0.00 0.00 0.00 0.00 0.00 0.00 0.00 0.00 0.00 0.00 0.00 0.00 0.00 0.00 0.00 0.00 0.00 0.00 0.00 0.00 0.00 0.00 0.00 0.00 0.00 0.00 0.00 0.00 0.00 0.00 0.00 0.00 0.00 0.00 0.00 0.00 0.00 0.00 0.00 0.00 0.00 0.00 0.00 0.00 0.00 0.01 0.01 0.01 0.01 0.01 0.01 0.00 0.00 0.00 0.01 0.01
0.00 0.00 0.00 0.00 0.00 0.00 0.00 0.00 0.00 0.00 0.00 0.00 0.00 0.00 0.00 0.00 0.00 0.00 0.00 0.00 0.00 0.00 0.00 0.00 0.00 0.00 0.00 0.00 0.00 0.01 0.00 0.00 0.00 0.00 0.00 0.00 0.01 0.02 0.00 0.00 0.00 0.00 0.00 0.00 0.00 0.00 0.00 0.00 0.00 0.00 0.00 0.00 0.00 0.00 0.00 0.00 0.00 0.00 0.00 0.00 0.00 0.00 0.00 0.00 0.00 0.00 0.00 0.00 0.00 0.00 0.00 0.00 0.00 0.00 0.01 0.00 0.00 0.00 0.00 0.00 0.00 0.00 0.00 0.00 0.00 0.00 0.00 0.00 0.01 0.01 0.01 0.01 0.01 0.00 0.00 0.00 0.01
0.00 0.00 0.00 0.00 0.00 0.00 0.00 0.00 0.00 0.00 0.00 0.00 0.00 0.00 0.00 0.00 0.00 0.00 0.00 0.00 0.00 0.00 0.00 0.00 0.00 0.00 0.00 0.00 0.00 0.00 0.00 0.00 0.00 0.00 0.00 0.00 0.00 0.00 0.02 0.01 0.01 0.00 0.00 0.00 0.00 0.00 0.00 0.00 0.00 0.00 0.00 0.00 0.00 0.00 0.00 0.00 0.00 0.00 0.00 0.00 0.00 0.00 0.00 0.00 0.00 0.00 0.00 0.00 0.00 0.00 0.02 0.01 0.00 0.00 0.00 0.00 0.01 0.00 0.00 0.00 0.00 0.00 0.00 0.00 0.00 0.00 0.00 0.00 0.00 0.01 0.01 0.01 0.00 0.00 0.00 0.01 0.01
0.00 0.00 0.00 0.00 0.00 0.00 0.00 0.00 0.00 0.00 0.00 0.00 0.00 0.00 0.00 0.00 0.01 0.00 0.00 0.00 0.00 0.00 0.00 0.00 0.00 0.00 0.00 0.00 0.00 0.00 0.00 0.00 0.00 0.00 0.00 0.00 0.00 0.00 0.00 0.00 0.03 0.00 0.00 0.00 0.00 0.00 0.00 0.00 0.00 0.00 0.00 0.00 0.00 0.00 0.00 0.00 0.00 0.00 0.00 0.00 0.00 0.00 0.00 0.00 0.00 0.00 0.00 0.00 0.00 0.00 0.01 0.00 0.00 0.00 0.00 0.00 0.00 0.00 0.00 0.00 0.00 0.00 0.00 0.00 0.00 0.00 0.00 0.00 0.00 0.00 0.00 0.00 0.00 0.00 0.00 0.01 0.02
0.00 0.00 0.00 0.00 0.00 0.00 0.00 0.00 0.00 0.00 0.00 0.00 0.00 0.00 0.00 0.00 0.00 0.00 0.00 0.00 0.00 0.00 0.00 0.00 0.00 0.00 0.00 0.00 0.00 0.00 0.00 0.00 0.00 0.00 0.00 0.00 0.00 0.00 0.00 0.00 0.01 0.00 0.00 0.00 0.00 0.00 0.00 0.00 0.00 0.00 0.00 0.00 0.00 0.00 0.00 0.00 0.00 0.00 0.00 0.00 0.00 0.00 0.00 0.00 0.00 0.00 0.00 0.00 0.00 0.00 0.00 0.00 0.00 0.00 0.00 0.00 0.00 0.00 0.00 0.00 0.00 0.00 0.00 0.00 0.00 0.00 0.00 0.00 0.00 0.00 0.00 0.00 0.00 0.00 0.00 0.00 0.01
0.00 0.00 0.00 0.00 0.00 0.00 0.00 0.00 0.00 0.00 0.00 0.00 0.00 0.00 0.00 0.00 0.00 0.00 0.00 0.00 0.00 0.00 0.00 0.00 0.00 0.00 0.00 0.00 0.00 0.00 0.00 0.00 0.00 0.00 0.00 0.01 0.00 0.00 0.01 0.00 0.00 0.01 0.00 0.01 0.00 0.00 0.00 0.00 0.00 0.00 0.00 0.00 0.00 0.00 0.00 0.00 0.00 0.00 0.00 0.00 0.00 0.00 0.00 0.00 0.00 0.00 0.00 0.00 0.00 0.00 0.00 0.00 0.00 0.00 0.00 0.00 0.00 0.00 0.00 0.00 0.00 0.00 0.00 0.00 0.00 0.00 0.00 0.00 0.00 0.00 0.00 0.00 0.00 0.00 0.00 0.00 0.00
0.00 0.00 0.00 0.00 0.00 0.00 0.00 0.00 0.00 0.00 0.00 0.00 0.00 0.00 0.00 0.00 0.00 0.00 0.00 0.00 0.00 0.00 0.00 0.00 0.00 0.00 0.00 0.00 0.00 0.00 0.00 0.00 0.00 0.00 0.00 0.01 0.00 0.01 0.00 0.02 0.04 0.05 0.06 0.09 0.00 0.00 0.00 0.00 0.00 0.00 0.00 0.00 0.00 0.00 0.00 0.00 0.00 0.00 0.00 0.00 0.00 0.00 0.00 0.00 0.00 0.00 0.00 0.00 0.00 0.00 0.00 0.00 0.00 0.00 0.00 0.00 0.00 0.00 0.00 0.00 0.01 0.00 0.00 0.00 0.00 0.00 0.00 0.00 0.00 0.01 0.00 0.00 0.00 0.00 0.00 0.00 0.00
0.00 0.00 0.00 0.00 0.00 0.00 0.00 0.00 0.00 0.00 0.00 0.00 0.00 0.00 0.00 0.00 0.00 0.00 0.00 0.00 0.00 0.00 0.00 0.00 0.00 0.00 0.00 0.00 0.00 0.00 0.00 0.00 0.00 0.00 0.00 0.00 0.00 0.02 0.01 0.02 0.00 0.01 0.00 0.00 0.00 0.00 0.00 0.00 0.00 0.00 0.00 0.00 0.00 0.00 0.00 0.00 0.00 0.00 0.00 0.00 0.00 0.00 0.00 0.00 0.00 0.00 0.00 0.00 0.00 0.01 0.00 0.00 0.00 0.00 0.00 0.00 0.00 0.00 0.00 0.00 0.00 0.00 0.01 0.03 0.00 0.00 0.00 0.01 0.01 0.00 0.00 0.00 0.00 0.00 0.00 0.00 0.00